Simultaneous Nadir Overpasses (SNOs) Predictions

Prediction of SNOs between GOES-16 and METOP-B Satellite Orbit:

Table of predicted SNOs for the next 14.0 days since TLE Epoch: 3/2/2018
Index Date Time (GOES-16) GOES-16 Lat,Lon METOP-B Lat,Lon Distance(km) Time Diff (sec)
1 03/03/2018 14:16:46 0.01, -75.21 -0.84, -71.51 422.44 80
2 03/05/2018 02:35:45 -0.01, -75.19 -0.21, -76.10 104.14 80
3 03/06/2018 02:12:26 -0.01, -75.19 0.91, -71.11 465.64 80
4 03/07/2018 14:31:17 0.01, -75.24 0.12, -75.67 49.39 80
5 03/10/2018 02:32:18 -0.00, -75.23 0.01, -75.28 5.39 80
6 03/12/2018 14:30:30 -0.00, -75.29 -0.10, -74.85 51.25 80
7 03/14/2018 02:49:29 0.00, -75.29 -0.95, -79.43 473.39 80
8 03/15/2018 02:26:10 0.00, -75.30 0.18, -74.44 97.46 80
9 03/16/2018 14:45:02 -0.00, -75.36 0.79, -79.02 415.99 80




NCC Satellite Simultaneous Nadir Overpasses (SNOs) Prediction Service
